Flag for India Weather past 2 weeks in Amravati, Maharashtra, India

Now
97 °F

Scattered clouds.


Feels Like: 107 °F
Forecast: 78 / 94 °F
Wind: 7 mph from Northwest

Location: Nagpur Sonegaon

Current Time: Jul 2, 2015 at 3:59:45 PM

Latest Report: Jul 2, 2015 at 3:10 PM


Visibility: 4 mi

Pressure: 29.71 "Hg

Humidity: 47%

Dew point: 73 °F

Location of AmravatiLocation

Historic Weather in Amravati — Graph

°F

Amravati temperature yesterday

Maximum temperature yesterday: 90 °F (at 11:40 AM)
Minimum temperature yesterday: 75 °F (at 4:10 AM)
Average temperature yesterday: 80 °F

Past Weeks' High & Low Weather Summary

 TemperatureHumidityPressure
High108 °F (Jun 20, 1:10 PM)100% (Jun 17, 11:10 PM)29.83 "Hg (Jun 17, 11:10 PM)
Low73 °F (Jun 18, 10:40 PM)44% (Jun 28, 1:40 PM)29.39 "Hg (Jun 20, 4:40 PM)
Average85 °F76%29.62 "Hg
* Reported Jun 17 2:40 PM — Jul 2 2:40 PM, Amravati, Weather by CustomWeather, © 2015

Note: Actual official high and low records may vary slightly from our data, if they occured in-between our weather recording intervals... More about our weather records

Advertising

Amravati weather history for previous 24 hours

 ConditionsComfort  
Time TempWeatherWind HumidityBarometerVisibility
2:40 PM
Thu, Jul 2
95 °FScattered clouds.7 mph53%29.74 "Hg4 mi
2:10 PM95 °FScattered clouds.6 mph53%29.74 "Hg4 mi
1:40 PM95 °FScattered clouds.9 mph53%29.74 "Hg4 mi
1:10 PM93 °FScattered clouds.6 mph56%29.77 "Hg4 mi
12:40 PM91 °FScattered clouds.7 mph59%29.77 "Hg4 mi
12:10 PM91 °FScattered clouds.12 mph63%29.80 "Hg4 mi
11:40 AM91 °FScattered clouds.13 mph63%29.80 "Hg4 mi
11:10 AM90 °FScattered clouds.12 mph67%29.83 "Hg4 mi
10:40 AM88 °FScattered clouds.8 mph75%29.83 "Hg4 mi
10:10 AM88 °FScattered clouds.7 mph70%29.83 "Hg4 mi
9:40 AM84 °FScattered clouds.7 mph79%29.83 "Hg4 mi
9:10 AM82 °FClear.3 mph84%29.83 "Hg4 mi
8:40 AM81 °FPartly sunny.5 mph84%29.83 "Hg3 mi
8:10 AM79 °FPartly sunny.3 mph89%29.83 "Hg2 mi
7:40 AM77 °FBroken clouds.5 mph94%29.80 "Hg2 mi
7:10 AM77 °FFog.No wind94%29.80 "Hg1 mi
6:40 AM75 °FFog.No wind94%29.80 "Hg1 mi
5:40 AM75 °FFog.No wind94%29.80 "Hg1 mi
5:10 AM75 °FFog.No wind94%29.77 "Hg1 mi
4:10 AM75 °FFog.No wind94%29.77 "Hg1 mi
2:40 AM75 °FPartly cloudy.No wind94%29.77 "Hg2 mi
11:40 PM
Wed, Jul 1
77 °FLight rain. Partly cloudy.No wind89%29.83 "Hg2 mi
10:40 PM77 °FLight rain. Partly cloudy.No wind89%29.83 "Hg2 mi
10:10 PM77 °FLight rain. Partly cloudy.2 mph89%29.83 "Hg2 mi
9:40 PM77 °FLight rain. Partly cloudy.2 mph89%29.83 "Hg2 mi
9:10 PM77 °FLight rain. Partly cloudy.2 mph89%29.80 "Hg2 mi
8:40 PM77 °FLight rain. Partly cloudy.3 mph89%29.80 "Hg2 mi
8:10 PM77 °FLight rain. Partly cloudy.2 mph89%29.77 "Hg2 mi
7:40 PM77 °FLight rain. Partly cloudy.3 mph89%29.77 "Hg2 mi
7:10 PM77 °FLight rain. Broken clouds.No wind89%29.74 "Hg2 mi
6:40 PM77 °FLight rain. Broken clouds.No wind89%29.74 "Hg2 mi
6:10 PM77 °FBroken clouds.5 mph89%29.74 "Hg2 mi
5:40 PM79 °FThunderstorms. Broken clouds.5 mph84%29.74 "Hg2 mi
5:10 PM79 °FThunderstorms. Broken clouds.No wind84%29.74 "Hg2 mi
4:40 PM77 °FThunderstorms. Broken clouds.6 mph89%29.74 "Hg2 mi
4:10 PM77 °FThunderstorms. Broken clouds.16 mph83%29.74 "Hg2 mi
3:10 PM82 °FBroken clouds.No wind79%29.74 "Hg2 mi
Weather by CustomWeather, © 2015

See weather overviewHow to use our weather pages